Miyan Wuliaoyuan

operational
NORAD ID: 63991 Int'l Des: NNA 2025-100 Owner: GUOX/ZJLAB Country: CN
LEOCIRCULARRETROGRADESSO

About Miyan Wuliaoyuan

Description loading...

Live Position

Loading 3D Globe...

Upcoming Passes

Altitude History

Altitude vs Time

uPlot chart will show altitude changes over time

Two-Line Element Set

1 63991U 25100K 26062.20489744 .00020841 00000-0 95132-3 0 9998
2 63991 97.3727 137.3114 0010129 338.4066 21.6741 15.20583696 44518
Epoch: Mar 3, 2026 • Age: 30 hours

Current Status

Altitude 514.4 km
Velocity 7.61 km/s
Sub-Earth Point 62.21°N, 134.75°W
Launch Date May 14, 2025
Age 0.8 years
Type other

Technical Details

Classification Payload
Mass 50.00 kg
Dry Mass 50.00 kg
Total Mass 50.00 kg
Length 0.30 m
Diameter 0.30 m
Span 0.30 m
Shape Box + 2 pan
Manufacturer GUOX
Bus Type XSD
Phase Status In Orbit
Owner/State GUOX/ZJLAB/CN

Large Constellations

Loading constellations...